Regional Weather Roundup
Issued by NWS

Home | Current Version | Previous Version | Text Only | Print | Product List | Glossary On
Versions: 1 2 3 4 5 6 7 8 9 10 11 12 13 14 15 16 17 18 19 20 21 22 23 24 25 26 27 28 29 30 31 32 33 34 35 36 37 38 39 40 41 42 43 44 45 46 47 48 49 50
000
ASUS44 KLIX 210213
RWRLA
LOUISIANA WEATHER ROUNDUP
NATIONAL WEATHER SERVICE NEW ORLEANS LA
900 PM CDT FRI OCT 20 2017

NOTE: "FAIR" INDICATES FEW OR NO CLOUDS BELOW 12,000 FEET WITH NO
      SIGNIFICANT WEATHER AND/OR OBSTRUCTIONS TO VISIBILITY.
      SKY/WX - SKY CONDITION AND SIGNIFICANT WEATHER.
      TMP - AIR TEMPERATURE.    DP   - DEWPOINT TEMPERATURE.
      RH  - RELATIVE HUMIDITY.  PRES - PRESSURE.
      HX  - HEAT INDEX.         WCI  - WIND CHILL INDEX.

*  THESE STATIONS ARE NOT NWS OR FAA STATIONS AND ARE NOT UNDER
   NWS QUALITY CONTROL.

LAZ040-048-061>063-065-066-069-210300-
SOUTHEAST LOUISIANA

CITY           SKY/WX    TMP DP  RH WIND       PRES   REMARKS
N.O. INTL ARPT PTCLDY    75  72  90 E10       30.07R
N.O. LAKEFRONT PTCLDY    75  72  90 E12       30.06S
N.O. DOWNTOWN* FAIR      75  71  87 E9        30.07S
RESERVE*       FAIR      75  70  84 E7        30.07R
SLIDELL        PTCLDY    71  67  87 E5        30.07S
BATON ROUGE    CLOUDY    73  67  81 E10       30.06R
BOOTHVILLE     PTCLDY    82  74  76 E10       30.06R
BELLE CHASSE   PTCLDY    76  68  75 E7        30.04S
BOGALUSA*      FAIR      70  66  87 CALM      30.10S
GALLIANO*      CLOUDY    76  72  86 E3        30.05S
NEW ROADS*     FAIR      73  67  80 E8        30.05S
GONZALES*      FAIR      73  69  89 E5        30.05S
HAMMOND*       PTCLDY    72  63  73 CALM      30.08R
HOUMA*         MOCLDY   N/A N/A N/A NE5       30.05R
PORT FOURCHON* MOCLDY    77  72  83 SE14G21   30.06R

$$

LAZ041-044-053-054-210300-
SOUTHWEST LOUISIANA

CITY           SKY/WX    TMP DP  RH WIND       PRES   REMARKS
LAKE CHARLES   CLOUDY    70  68  93 NE6       30.00S
LAFAYETTE      CLOUDY    74  71  91 VRB5      30.02F
PATTERSON      MOCLDY    74  70  87 E8        30.04F
SALT POINT       N/A     75  71  87 VRB3      30.01F
NEW IBERIA     CLOUDY    75  69  81 E13       30.02F
CHENAULT AIRPK PTCLDY    68  68 100 CALM      30.01S

$$

LAZ027-028-210300-
CENTRAL LOUISIANA

CITY           SKY/WX    TMP DP  RH WIND       PRES   REMARKS
FORT POLK      PTCLDY    69  65  88 E5        30.01F
ALEXANDRIA INT CLOUDY    71  65  81 CALM      30.01F
ALEXANDRIA     CLOUDY    65  65 100 CALM      30.04S

$$

LAZ001-002-210300-
NORTHWEST LOUISIANA

CITY           SKY/WX    TMP DP  RH WIND       PRES   REMARKS
SHREVEPORT     PTCLDY    70  65  84 SE9       30.01S
BARKSDALE AFB  CLEAR     67  62  85 E7        30.01F
DTN SHREVEPORT PTCLDY    70  63  78 SE8       30.02S

$$

LAZ014-016-210300-
NORTHEAST LOUISIANA

CITY           SKY/WX    TMP DP  RH WIND       PRES   REMARKS
MONROE         CLOUDY    69  63  81 E3        30.06S
TALLULAH       PTCLDY    67  65  93 CALM      30.07R

$$




USA.gov is the U.S. government's official web portal to all federal, state and local government web resources and services.